Morgantown, WV

12:55 PM EDT on October 18, 2017 (GMT -0400)
Morgantown Municipal-Hart

Weather History for KMGW - March, 2013

Change the Weather History Date:

Saturday, March 16, 2013

  Actual Average Record
Temperature  
Mean Temperature 50 °F 42 °F  
Max Temperature 61 °F 52 °F 75 °F (1990)
Min Temperature 38 °F 32 °F 12 °F (1992)
Degree Days  
Heating Degree Days 15 23  
Month to date heating degree days 393 407  
Since 1 July heating degree days 4084 4296  
Cooling Degree Days 0 0  
Month to date cooling degree days 0 0  
Year to date cooling degree days 0 0  
Moisture  
Dew Point 41 °F    
Average Humidity 78    
Maximum Humidity 93    
Minimum Humidity 62    
Precipitation  
Precipitation 0.04 in 0.13 in 1.03 in (2002)
Month to date precipitation 1.02 1.81  
Year to date precipitation 5.59 7.22  
Sea Level Pressure  
Sea Level Pressure 29.77 in    
Wind  
Wind Speed 4 mph (NNW)    
Max Wind Speed 16 mph    
Max Gust Speed 21 mph    
Visibility 8 miles    
Events Rain    
T = Trace of Precipitation, MM = Missing Value Source: NWS Daily Summary

Daily Weather History Graph

Daily Weather History Graph

Search for Another Location

Airport or City:

Trip Planner

Search our weather history database for the weather conditions in past years. The results will help you decide how hot, cold, wet, or windy it might be!

Date:

Astronomy

Mar. 16, 2013 Rise Set
Actual Time 7:29 AM EDT 7:27 PM EDT
Civil Twilight 7:02 AM EDT 7:54 PM EDT
Nautical Twilight 6:31 AM EDT 8:26 PM EDT
Astronomical Twilight 5:59 AM EDT 8:57 PM EDT
Moon 9:58 AM EDT (3/16) No Moon Set
Length of Visible Light 12h 52m
Length of Day
11h 58m
Waxing Crescent, 23% of the Moon is Illuminated
Mar 16
Waxing Crescent
Mar 19
First Quarter
Mar 27
Full
Apr 3
Last Quarter
Apr 10
New

Hourly Weather History & Observations

Time (EDT) Temp. Windchill Dew Point Humidity Pressure Visibility Wind Dir Wind Speed Gust Speed Precip Events Conditions
12:53 AM 46.9 °F - 35.1 °F 63% 29.86 in 10.0 mi Variable 3.5 mph - N/A   Overcast
1:53 AM 45.0 °F - 37.9 °F 76% 29.85 in 7.0 mi Calm Calm - 0.00 in Rain Light Rain
2:08 AM 44.6 °F 43.1 °F 37.4 °F 76% 29.83 in 7.0 mi SSW 3.5 mph - 0.00 in   Overcast
2:20 AM 44.6 °F 42.2 °F 37.4 °F 76% 29.83 in 7.0 mi SSW 4.6 mph - 0.00 in Rain Light Rain
2:53 AM 44.1 °F - 39.0 °F 82% 29.83 in 8.0 mi Calm Calm - 0.01 in   Overcast
3:04 AM 42.8 °F - 39.2 °F 87% 29.81 in 6.0 mi Calm Calm - 0.00 in Rain Light Rain
3:53 AM 43.0 °F 40.3 °F 39.9 °F 89% 29.78 in 7.0 mi SSE 4.6 mph - 0.01 in   Overcast
4:53 AM 44.1 °F - 39.9 °F 85% 29.75 in 8.0 mi Calm Calm - N/A   Overcast
5:53 AM 44.1 °F 42.5 °F 39.9 °F 85% 29.75 in 10.0 mi SSW 3.5 mph - 0.01 in   Overcast
6:53 AM 44.1 °F - 39.9 °F 85% 29.74 in 7.0 mi Calm Calm - 0.00 in Rain Light Rain
7:53 AM 44.1 °F - 41.0 °F 89% 29.72 in 10.0 mi Calm Calm - 0.00 in   Overcast
8:53 AM 46.0 °F - 42.1 °F 86% 29.70 in 10.0 mi Calm Calm - N/A   Overcast
9:53 AM 48.9 °F - 43.0 °F 80% 29.67 in 10.0 mi Calm Calm - N/A   Mostly Cloudy
10:53 AM 52.0 °F - 44.1 °F 74% 29.65 in 10.0 mi SSW 6.9 mph - N/A   Mostly Cloudy
11:53 AM 55.0 °F - 45.0 °F 69% 29.62 in 10.0 mi SSW 4.6 mph - N/A   Overcast
12:53 PM 57.9 °F - 46.0 °F 65% 29.61 in 10.0 mi SSW 10.4 mph 17.3 mph N/A   Mostly Cloudy
1:53 PM 59.0 °F - 46.9 °F 64% 29.62 in 10.0 mi Variable 3.5 mph - N/A   Overcast
2:53 PM 59.0 °F - 46.9 °F 64% 29.62 in 10.0 mi Variable 5.8 mph - N/A   Overcast
3:53 PM 57.9 °F - 48.0 °F 70% 29.65 in 10.0 mi West 6.9 mph - N/A   Overcast
4:41 PM 48.2 °F - 44.6 °F 87% 29.70 in 5.0 mi North 12.7 mph 19.6 mph 0.01 in   Overcast
4:49 PM 48.2 °F - 44.6 °F 87% 29.71 in 4.0 mi North 8.1 mph 19.6 mph 0.01 in   Overcast
4:53 PM 46.9 °F - 44.1 °F 90% 29.73 in 3.0 mi North 8.1 mph - 0.01 in   Overcast
4:55 PM 48.2 °F - 44.6 °F 87% 29.71 in 3.0 mi North 8.1 mph - 0.00 in Rain Light Rain
5:25 PM 48.2 °F - 44.6 °F 87% 29.73 in 5.0 mi North 8.1 mph - 0.00 in Rain Light Rain
5:53 PM 46.9 °F - 43.0 °F 86% 29.77 in 5.0 mi NNE 6.9 mph - 0.00 in Rain Light Rain
6:53 PM 46.9 °F - 43.0 °F 86% 29.79 in 5.0 mi Calm Calm - 0.00 in Rain Light Rain
7:43 PM 46.4 °F 45.2 °F 42.8 °F 87% 29.82 in 6.0 mi NNW 3.5 mph - 0.00 in Rain Light Rain
7:53 PM 46.0 °F 42.5 °F 42.1 °F 86% 29.84 in 6.0 mi NNE 6.9 mph - 0.00 in Rain Light Rain
8:13 PM 46.4 °F 42.4 °F 41.0 °F 81% 29.85 in 6.0 mi North 8.1 mph - 0.00 in Rain Light Rain
8:53 PM 42.1 °F 36.1 °F 39.0 °F 89% 29.90 in 6.0 mi North 10.4 mph - 0.00 in Rain Light Rain
9:51 PM 42.8 °F 40.1 °F 37.4 °F 81% 29.92 in 10.0 mi North 4.6 mph - 0.00 in Rain Light Rain
9:53 PM 42.1 °F 39.2 °F 37.0 °F 82% 29.94 in 10.0 mi North 4.6 mph - 0.00 in   Overcast
10:53 PM 39.9 °F 35.1 °F 35.1 °F 83% 29.95 in 10.0 mi North 6.9 mph - N/A   Overcast
11:53 PM 39.0 °F 35.7 °F 34.0 °F 82% 29.96 in 10.0 mi North 4.6 mph - N/A   Overcast